| time (UTC) | temp C | wind direction | speed KPH | gust KPH | rain 1hr cm | rain 24hr cm | rain mn cm | humidity % | barometer mb |
| 20260503070308 | 3 | 250 | 12.9 | 0.0 | 0.00 | 0.00 | 0.00 | 51 | 1009.0 |
| 20260503060307 | 3 | 270 | 9.7 | 0.0 | 0.00 | 0.00 | 0.00 | 48 | 1009.0 |
| 20260503053306 | 3 | 280 | 12.9 | 0.0 | 0.00 | 0.00 | 0.00 | 48 | 1009.0 |
| 20260503050307 | 3 | 280 | 12.9 | 0.0 | 0.00 | 0.00 | 0.00 | 51 | 1010.0 |
| 20260503043309 | 3 | 280 | 14.5 | 0.0 | 0.00 | 0.00 | 0.00 | 48 | 1009.0 |
| 20260503040306 | 3 | 290 | 12.9 | 0.0 | 0.00 | 0.00 | 0.00 | 51 | 1009.0 |
| 20260503033307 | 2 | 290 | 12.9 | 0.0 | 0.00 | 0.00 | 0.00 | 59 | 1010.0 |
| 20260503030307 | 2 | 310 | 16.1 | 0.0 | 0.00 | 0.00 | 0.00 | 69 | 1010.0 |
| 20260503023306 | 2 | 260 | 11.3 | 0.0 | 0.00 | 0.00 | 0.00 | 64 | 1010.0 |
| 20260503020307 | 2 | 280 | 9.7 | 0.0 | 0.00 | 0.00 | 0.00 | 69 | 1010.0 |
| 20260503013308 | 2 | 300 | 11.3 | 0.0 | 0.00 | 0.00 | 0.00 | 69 | 1010.0 |
| 20260503010309 | 2 | 310 | 14.5 | 0.0 | 0.00 | 0.00 | 0.00 | 69 | 1010.0 |
| 20260503003309 | 3 | 310 | 19.3 | 0.0 | 0.00 | 0.00 | 0.00 | 64 | 1010.0 |
| 20260503000306 | 3 | 290 | 19.3 | 0.0 | 0.00 | 0.00 | 0.00 | 51 | 1010.0 |
| 20260502233310 | 3 | 300 | 19.3 | 0.0 | 0.00 | 0.00 | 0.00 | 64 | 1010.0 |
| 20260502230307 | 3 | 300 | 16.1 | 0.0 | 0.00 | 0.00 | 0.00 | 64 | 1010.0 |
| 20260502223307 | 3 | 310 | 12.9 | 0.0 | 0.00 | 0.00 | 0.00 | 69 | 1010.0 |
| 20260502220307 | 2 | 320 | 14.5 | 0.0 | 0.00 | 0.00 | 0.00 | 80 | 1010.0 |
| 20260502213308 | 2 | 330 | 12.9 | 0.0 | 0.00 | 0.00 | 0.00 | 86 | 1010.0 |
| 20260502210306 | 2 | 310 | 22.5 | 0.0 | 0.00 | 0.00 | 0.00 | 86 | 1010.0 |
| 20260502203306 | 2 | 290 | 22.5 | 0.0 | 0.00 | 0.00 | 0.00 | 86 | 1010.0 |
| 20260502200307 | 3 | 290 | 24.1 | 0.0 | 0.00 | 0.00 | 0.00 | 80 | 1009.0 |
| 20260502193309 | 3 | 280 | 11.3 | 0.0 | 0.00 | 0.00 | 0.00 | 86 | 1009.0 |
| 20260502190307 | 2 | 230 | 12.9 | 0.0 | 0.00 | 0.00 | 0.00 | 86 | 1008.0 |
| 20260502183306 | 3 | 240 | 20.9 | 0.0 | 0.00 | 0.00 | 0.00 | 86 | 1008.0 |
| 20260502180308 | 3 | 230 | 25.7 | 0.0 | 0.00 | 0.00 | 0.00 | 86 | 1008.0 |
| 20260502170308 | 5 | 240 | 29.0 | 0.0 | 0.00 | 0.00 | 0.00 | 65 | 1008.0 |
| 20260502163308 | 5 | 250 | 25.7 | 0.0 | 0.00 | 0.00 | 0.00 | 65 | 1008.0 |
| 20260502160309 | 5 | 270 | 19.3 | 0.0 | 0.00 | 0.00 | 0.00 | 75 | 1009.0 |
| 20260502150309 | 2 | 260 | 19.3 | 0.0 | 0.00 | 0.00 | 0.00 | 86 | 1009.0 |
| 20260502130309 | 5 | 260 | 22.5 | 0.0 | 0.00 | 0.00 | 0.00 | 65 | 1009.0 |
| 20260502123308 | 7 | 240 | 25.7 | 0.0 | 0.00 | 0.00 | 0.00 | 65 | 1009.0 |
| 20260502120309 | 6 | 240 | 24.1 | 0.0 | 0.00 | 0.00 | 0.00 | 56 | 1009.0 |
| 20260502113310 | 5 | 230 | 22.5 | 0.0 | 0.00 | 0.00 | 0.00 | 70 | 1009.0 |
| 20260502110309 | 6 | 230 | 20.9 | 0.0 | 0.00 | 0.00 | 0.00 | 65 | 1008.0 |
| 20260502103308 | 5 | 240 | 16.1 | 0.0 | 0.00 | 0.00 | 0.00 | 70 | 1008.0 |
| 20260502100308 | 6 | 250 | 22.5 | 0.0 | 0.00 | 0.00 | 0.00 | 56 | 1008.0 |
| 20260502090308 | 5 | 250 | 22.5 | 0.0 | 0.00 | 0.00 | 0.00 | 56 | 1008.0 |